Location: Godzisko
(49.9648°N, 19.4576°E)
Time: 06:15:17
(UTC+00:00)

USA 308 - Pass Details

Date: 20 April 2021
Orbit: 568 x 576 km, 54.0° (Epoch: 05 May)

Event Time Altitude Azimuth Distance (km) Brightness Sun altitude
Exits shadow 00:09:20 61° 359° (N) 656 3.3 -25.5°
Drops below altitude 10° 00:13:25 10° 66° (ENE) 1,890 6.2 -25.3°
Sets 00:15:43 0° 70° (ENE) 2,790 7.1 -25.1°
